Weather History for KBFW - June, 2013

Change the Weather History Date:

Friday, June 7, 2013

  Actual Average Record
Temperature  
Mean Temperature 50 °F -  
Max Temperature 66 °F 63 °F 82 °F (2006)
Min Temperature 33 °F 41 °F 33 °F (2013)
Degree Days  
Heating Degree Days 16    
Moisture  
Dew Point 31 °F    
Average Humidity 50    
Maximum Humidity 93    
Minimum Humidity 21    
Precipitation  
Precipitation 0.00 in - - ()
Sea Level Pressure  
Sea Level Pressure 30.00 in    
Wind  
Wind Speed 0 mph (ESE)    
Max Wind Speed 5 mph    
Max Gust Speed -    
Visibility 10 miles    
Events      
Averages and records for this station are not official NWS values.
T = Trace of Precipitation, MM = Missing Value Source: NWS Daily Summary

Daily Weather History Graph

Daily Weather History Graph

Search for Another Location

Airport or City:

Trip Planner

Search our weather history database for the weather conditions in past years. The results will help you decide how hot, cold, wet, or windy it might be!

Date:

Astronomy

Jun. 07, 2013 Rise Set
Actual Time 5:10 AM CDT 8:59 PM CDT
Civil Twilight 4:30 AM CDT 9:38 PM CDT
Nautical Twilight 3:37 AM CDT 10:32 PM CDT
Astronomical Twilight 2:18 AM CDT 11:51 PM CDT
Moon 4:38 AM CDT (6/7) 8:08 PM CDT (6/7)
Length of Visible Light 17h 07m
Length of Day
15h 48m
Waning Crescent, 1% of the Moon is Illuminated
Jun 7
Waning Crescent
Jun 8
New
Jun 16
First Quarter
Jun 23
Full
Jun 29
Last Quarter

Hourly Weather History & Observations

Time (CDT) Temp. Dew Point Humidity Pressure Visibility Wind Dir Wind Speed Gust Speed Precip Events Conditions
12:13 AM 42.8 °F 37.4 °F 81% 30.05 in 10.0 mi Calm Calm - N/A   Overcast
12:33 AM 42.8 °F 37.4 °F 81% 30.05 in 10.0 mi Calm Calm - N/A   Overcast
12:53 AM 41.0 °F 35.6 °F 81% 30.04 in 10.0 mi Calm Calm - N/A   Scattered Clouds
1:13 AM 39.2 °F 35.6 °F 87% 30.04 in 10.0 mi Calm Calm - N/A   Scattered Clouds
1:33 AM 39.2 °F 35.6 °F 87% 30.04 in 10.0 mi Calm Calm - N/A   Scattered Clouds
1:53 AM 37.4 °F 33.8 °F 87% 30.03 in 10.0 mi Calm Calm - N/A   Scattered Clouds
2:13 AM 37.4 °F 33.8 °F 87% 30.03 in 10.0 mi Calm Calm - N/A   Scattered Clouds
2:33 AM 35.6 °F 33.8 °F 93% 30.03 in 10.0 mi Calm Calm - N/A   Clear
2:53 AM 35.6 °F 32.0 °F 87% 30.03 in 10.0 mi Calm Calm - N/A   Clear
3:13 AM 35.6 °F 30.2 °F 81% 30.03 in 10.0 mi Calm Calm - N/A   Clear
3:33 AM 33.8 °F 30.2 °F 87% 30.03 in 10.0 mi Calm Calm - N/A   Clear
3:53 AM 33.8 °F 30.2 °F 87% 30.03 in 10.0 mi Calm Calm - N/A   Scattered Clouds
4:13 AM 33.8 °F 30.2 °F 87% 30.03 in 10.0 mi Calm Calm - N/A   Scattered Clouds
4:33 AM 33.8 °F 30.2 °F 87% 30.02 in 10.0 mi Calm Calm - N/A   Clear
4:53 AM 33.8 °F 30.2 °F 87% 30.03 in 10.0 mi Calm Calm - N/A   Clear
5:13 AM 33.8 °F 30.2 °F 87% 30.03 in 10.0 mi Calm Calm - N/A   Clear
5:33 AM 33.8 °F 32.0 °F 93% 30.03 in 10.0 mi Calm Calm - N/A   Mostly Cloudy
5:53 AM 37.4 °F 35.6 °F 93% 30.03 in 10.0 mi Calm Calm - N/A   Overcast
6:13 AM 42.8 °F 37.4 °F 81% 30.04 in 10.0 mi Calm Calm - N/A   Overcast
6:33 AM 44.6 °F 37.4 °F 76% 30.04 in 10.0 mi Calm Calm - N/A   Overcast
6:53 AM 44.6 °F 37.4 °F 76% 30.04 in 10.0 mi Calm Calm - N/A   Overcast
7:13 AM 46.4 °F 39.2 °F 76% 30.04 in 10.0 mi Calm Calm - N/A   Overcast
7:33 AM 48.2 °F 39.2 °F 71% 30.05 in 10.0 mi Calm Calm - N/A   Overcast
7:53 AM 51.8 °F 42.8 °F 71% 30.05 in 10.0 mi Calm Calm - N/A   Overcast
8:13 AM 59.0 °F 39.2 °F 48% 30.05 in 10.0 mi Calm Calm - N/A   Scattered Clouds
8:33 AM 60.8 °F 33.8 °F 36% 30.05 in 10.0 mi Calm Calm - N/A   Clear
8:53 AM 59.0 °F 33.8 °F 39% 30.05 in 10.0 mi Calm Calm - N/A   Mostly Cloudy
9:13 AM 59.0 °F 32.0 °F 36% 30.05 in 10.0 mi Calm Calm - N/A   Overcast
9:33 AM 60.8 °F 33.8 °F 36% 30.04 in 10.0 mi Calm Calm - N/A   Mostly Cloudy
9:53 AM 60.8 °F 32.0 °F 34% 30.04 in 10.0 mi Calm Calm - N/A   Scattered Clouds
10:13 AM 59.0 °F 32.0 °F 36% 30.04 in 10.0 mi Calm Calm - N/A   Scattered Clouds
10:33 AM 59.0 °F 32.0 °F 36% 30.04 in 10.0 mi Calm Calm - N/A   Scattered Clouds
10:53 AM 60.8 °F 32.0 °F 34% 30.04 in 10.0 mi Calm Calm - N/A   Scattered Clouds
11:13 AM 60.8 °F 32.0 °F 34% 30.04 in 10.0 mi Calm Calm - N/A   Scattered Clouds
11:33 AM 60.8 °F 33.8 °F 36% 30.03 in 10.0 mi Calm Calm - N/A   Scattered Clouds
11:53 AM 60.8 °F 32.0 °F 34% 30.03 in 10.0 mi Calm Calm - N/A   Scattered Clouds
12:13 PM 62.6 °F 32.0 °F 32% 30.03 in 10.0 mi Calm Calm - N/A   Scattered Clouds
12:33 PM 64.4 °F 30.2 °F 28% 30.02 in 10.0 mi Calm Calm - N/A   Clear
12:53 PM 64.4 °F 26.6 °F 24% 30.02 in 10.0 mi Calm Calm - N/A   Scattered Clouds
1:13 PM 64.4 °F 26.6 °F 24% 30.01 in 10.0 mi Calm Calm - N/A   Scattered Clouds
1:33 PM 66.2 °F 28.4 °F 24% 30.00 in 10.0 mi Calm Calm - N/A   Clear
1:53 PM 64.4 °F 26.6 °F 24% 30.00 in 10.0 mi Calm Calm - N/A   Clear
2:13 PM 64.4 °F 26.6 °F 24% 29.99 in 10.0 mi Calm Calm - N/A   Clear
2:33 PM 64.4 °F 26.6 °F 24% 29.99 in 10.0 mi Calm Calm - N/A   Clear
2:51 PM 64.4 °F 24.8 °F 22% 29.98 in 10.0 mi Calm Calm - N/A   Clear
2:54 PM 64.4 °F 23.0 °F 21% 29.98 in 10.0 mi Calm Calm - N/A   Clear
3:13 PM 64.4 °F 24.8 °F 22% 29.98 in 10.0 mi ESE 4.6 mph - N/A   Clear
3:33 PM 64.4 °F 24.8 °F 22% 29.98 in 10.0 mi Calm Calm - N/A   Clear
3:53 PM 64.4 °F 23.0 °F 21% 29.97 in 10.0 mi Calm Calm - N/A   Scattered Clouds
4:13 PM - - N/A% 29.97 in 10.0 mi Calm Calm - N/A   Scattered Clouds
4:33 PM 64.4 °F 24.8 °F 22% 29.97 in 10.0 mi Calm Calm - N/A   Scattered Clouds
4:53 PM 62.6 °F 26.6 °F 26% 29.97 in 10.0 mi Calm Calm - N/A   Scattered Clouds
5:13 PM 64.4 °F 26.6 °F 24% 29.97 in 10.0 mi Calm Calm - N/A   Scattered Clouds
5:33 PM 64.4 °F 26.6 °F 24% 29.96 in 10.0 mi Calm Calm - N/A   Scattered Clouds
5:53 PM 62.6 °F 26.6 °F 26% 29.96 in 10.0 mi Calm Calm - N/A   Mostly Cloudy
6:13 PM 62.6 °F 26.6 °F 26% 29.96 in 10.0 mi Calm Calm - N/A   Scattered Clouds
6:33 PM 62.6 °F 24.8 °F 24% 29.95 in 10.0 mi Calm Calm - N/A   Clear
6:53 PM 62.6 °F 24.8 °F 24% 29.95 in 10.0 mi Calm Calm - N/A   Scattered Clouds
7:13 PM 60.8 °F 24.8 °F 25% 29.95 in 10.0 mi Calm Calm - N/A   Scattered Clouds
7:33 PM 60.8 °F 24.8 °F 25% 29.95 in 10.0 mi Calm Calm - N/A   Scattered Clouds
7:53 PM 59.0 °F 30.2 °F 34% 29.95 in 10.0 mi Calm Calm - N/A   Scattered Clouds
8:13 PM 57.2 °F 30.2 °F 36% 29.95 in 10.0 mi Calm Calm - N/A   Clear
8:33 PM 55.4 °F 24.8 °F 31% 29.95 in 10.0 mi Calm Calm - N/A   Clear
8:53 PM 55.4 °F 24.8 °F 31% 29.95 in 10.0 mi Calm Calm - N/A   Scattered Clouds
9:13 PM 53.6 °F 28.4 °F 38% 29.95 in 10.0 mi Calm Calm - N/A   Overcast
9:33 PM 51.8 °F 32.0 °F 47% 29.95 in 10.0 mi Calm Calm - N/A   Mostly Cloudy
9:53 PM 51.8 °F 32.0 °F 47% 29.95 in 10.0 mi Calm Calm - N/A   Mostly Cloudy
10:13 PM 50.0 °F 32.0 °F 50% 29.95 in 10.0 mi Calm Calm - N/A   Mostly Cloudy
10:33 PM 50.0 °F 33.8 °F 54% 29.95 in 10.0 mi Calm Calm - N/A   Mostly Cloudy
10:53 PM 50.0 °F 35.6 °F 58% 29.95 in 10.0 mi Calm Calm - N/A   Mostly Cloudy
11:13 PM 48.2 °F 37.4 °F 66% 29.94 in 10.0 mi Calm Calm - N/A   Scattered Clouds
11:33 PM 48.2 °F 35.6 °F 62% 29.94 in 10.0 mi Calm Calm - N/A   Clear
11:53 PM 48.2 °F 35.6 °F 62% 29.94 in 10.0 mi Calm Calm - N/A   Mostly Cloudy